Station 45002 (LLNR 18310) - NORTH MICHIGAN- Halfway between North Manitou and Washington Islands. Image indicating link to RSS feed of recent meteorological observations for station 45002


Conditions at 45002 as of
(10:20 am EDT)
1420 GMT on 07/23/2024:
     

Click on the graph icon in the table below to see a time series plot of the last five days of that observation.

5-day plot - Wind Direction Wind Direction (WDIR):ENE ( 70 deg true )
5-day plot - Wind Speed Wind Speed (WSPD): 15.5 kts
5-day plot - Wind Gust Wind Gust (GST): 17.5 kts
5-day plot - Wave Height Wave Height (WVHT): 1.0 ft
5-day plot - Dominant Wave Period Dominant Wave Period (DPD): 3 sec
5-day plot - Average Wave Period Average Period (APD): 2.5 sec
5-day plot - Mean Wave Direction Mean Wave Direction (MWD): NE ( 35 deg true )
5-day plot - Atmospheric Pressure Atmospheric Pressure (PRES):30.01 in
5-day plot - Air Temperature Air Temperature (ATMP): 64.9 °F
5-day plot - Water Temperature Water Temperature (WTMP): 67.6 °F
5-day plot - Dew Point Dew Point (DEWP): 61.7 °F
5-day plot - Wind Speed at 10 Meters Wind Speed at 10 meters (WSPD10M): 15.5 kts
5-day plot - Wind Speed at 20 Meters Wind Speed at 20 meters (WSPD20M): 17.5 kts
5-day plot -  Wind Speed, Wind Gust and Atmospheric Pressure Combined plot of Wind Speed, Gust, and Air Pressure
Supplemental Measurements
Highest 1-minute Wind Speed
Time (EDT)5-day plot - 1-Minute Wind Speed WSPD 5-day plot - 1-Minute Wind Direction WDIR
10:14 am 15.5 kts-
Previous observations
TIME
(EDT)
5-day plot - Wind Direction
WDIR
 
5-day plot - Wind Speed
WSPD
kts
5-day plot - Wind Gust
GST
kts
5-day plot - Wave Height
WVHT
ft
5-day plot - Dominant Wave Period
DPD
sec
5-day plot - Average Wave Period
APD
sec
5-day plot - Mean Wave Direction
MWD
 
5-day plot - Atmospheric Pressure
PRES
in
5-day plot - Pressure Tendency
PTDY
in
5-day plot - Air Temperature
ATMP
°F
5-day plot - Water Temperature
WTMP
°F
5-day plot - Dew Point
DEWP
°F
5-day plot - Salinity
SAL
psu
5-day plot - Visibility
VIS
nmi
5-day plot - Tide (above MLLW)
TIDE
ft
2024-07-23 10:10 amENE 15.5 19.4----30.01- 64.8 67.6 61.2---
2024-07-23 10:00 amENE 15.5 19.4----30.00-0.01 64.6 67.8 61.7---
2024-07-23 09:50 amENE 13.6 15.5 0.7-2.6-30.01- 64.4 67.8 61.5---
2024-07-23 09:40 amENE 11.7 13.6----30.02- 64.2 67.8 61.2---
2024-07-23 09:30 amENE 9.7 13.6----30.02- 64.2 67.8 60.8---
2024-07-23 09:20 amENE 9.7 11.7 1.0 32.6NNE30.02- 64.0 68.0 60.4---
2024-07-23 09:10 amENE 7.8 11.7 1.0-2.6NNE30.02- 64.2 68.0 60.6---
2024-07-23 09:00 amENE 7.8 9.7----30.02+0.04 64.4 68.0 60.6---
2024-07-23 08:50 amENE 7.8 9.7 0.7-2.6-30.02- 64.6 68.0 60.4---
2024-07-23 08:40 amENE 7.8 9.7 0.7-2.6-30.02- 64.9 68.0 60.8---
2024-07-23 08:30 am E 5.8 7.8----30.02- 64.9 68.0 60.3---
2024-07-23 08:20 amENE 5.8 5.8 0.7-2.5-30.03- 64.9 68.0 60.6---
2024-07-23 08:10 amENE 3.9 5.8 0.7-2.5-30.03- 64.9 68.0 60.6---
2024-07-23 08:00 am NE 5.8 7.8----30.02+0.04 65.1 68.2 60.6---
2024-07-23 07:50 am NE 3.9 5.8----30.02- 65.3 68.0 59.7---
2024-07-23 07:40 amNNE 5.8 7.8----30.02- 65.5 68.2 59.9---
2024-07-23 07:30 am---------- 68.2----
2024-07-23 07:20 am NE 3.9 5.8 0.7-3.2-30.02- 66.0 68.2 59.7---
2024-07-23 07:10 amNNE 5.8 5.8 0.7-3.2-30.01- 66.6 68.2 60.4---
2024-07-23 07:00 amNNE 7.8 9.7----30.01+0.01 66.9 68.2 60.8---
2024-07-23 06:50 am N 9.7 11.7 0.3-2.9-30.00- 66.6 68.4 59.5---
2024-07-23 06:40 am N 9.7 11.7----29.99- 66.4 68.4 59.5---
2024-07-23 06:30 am N 11.7 11.7----29.99- 66.7 68.5 60.1---
2024-07-23 06:20 amNNE 11.7 11.7 0.3-2.7-29.98- 67.1 68.5 60.8---
2024-07-23 06:10 am N 11.7 13.6 0.3-2.7-29.98- 67.6 68.5 61.7---
2024-07-23 06:00 am N 7.8 11.7----29.99-0.01 68.2 68.5 60.6---
2024-07-23 05:50 am N 5.8 7.8 0.3-2.8-29.98- 68.2 68.5 60.8---
2024-07-23 05:40 am N 5.8 7.8 0.3-2.8-29.99- 68.2 68.5 61.7---
2024-07-23 05:30 am N 5.8 7.8----29.99- 68.0 68.7 63.5---
2024-07-23 05:20 am N 7.8 7.8 0.3-2.7-29.98- 68.0 68.7 62.1---
2024-07-23 05:10 am N 5.8 5.8 0.3-2.7-29.98- 68.0 68.7 62.4---
2024-07-23 05:00 amNNW 3.9 5.8----29.99+0.00 68.0 68.7 61.2---
2024-07-23 04:50 am NW 3.9 3.9 0.3-2.7-29.99- 68.0 68.7 61.5---
2024-07-23 04:40 am NW 3.9 3.9 0.3-2.7-29.99- 68.0 68.7 61.2---
2024-07-23 04:30 am NW 3.9 3.9----29.99- 68.0 68.7 62.1---
2024-07-23 04:20 amWNW 3.9 3.9 0.0-2.6-29.99- 68.0 68.7 62.1---
2024-07-23 04:10 amWNW 3.9 5.8 0.0-2.6-30.00- 68.2 68.9 62.1---
2024-07-23 04:00 amWNW 3.9 5.8----30.00+0.00 68.2 68.9 60.4---
2024-07-23 03:50 am NW 3.9 5.8 0.3-2.6-29.99- 68.4 68.9 61.5---
2024-07-23 03:40 am NW 3.9 3.9 0.3-2.6-29.98- 68.5 68.9 62.2---
2024-07-23 03:30 amNNW 3.9 3.9----29.99- 68.5 68.9 63.1---
2024-07-23 03:20 am NW 1.9 1.9 0.0-2.6-29.99- 68.7 68.9 62.6---
2024-07-23 03:10 amWNW 1.9 3.9 0.0-2.6-29.99- 68.9 68.9 63.1---
2024-07-23 03:00 am NW 1.9 3.9----30.00+0.00 68.7 68.9 64.6---
2024-07-23 02:50 am NW 3.9 3.9 0.0-2.6-30.00- 68.7 68.9 65.1---
2024-07-23 02:40 amWNW 3.9 3.9 0.0-2.6-29.99- 69.1 68.9 64.0---
2024-07-23 02:30 am NW 1.9 5.8----29.99- 68.9 68.9 64.2---
2024-07-23 02:20 am- 0.0 3.9 0.0-2.7-29.99- 68.7 68.9 65.8---
2024-07-23 02:10 amNNE 3.9 5.8 0.0-2.7-29.98- 68.7 68.9 65.3---
2024-07-23 02:00 amNNE 3.9 5.8----29.99+0.01 68.7 68.9 65.8---
2024-07-23 01:50 amNNW 1.9 5.8 0.3-2.6-29.99- 68.5 68.9 66.2---
2024-07-23 01:40 am NW 1.9 3.9----29.99- 68.5 68.9 66.7---
2024-07-23 01:30 am W 1.9 3.9----29.99- 68.9 68.9 66.2---
2024-07-23 01:20 am- 0.0 1.9 0.3-2.6-29.99- 68.5 68.9 65.3---
2024-07-23 01:10 am- 0.0 0.0 0.3-2.6-29.99- 68.4 69.1 65.7---
2024-07-23 01:00 am- 0.0 1.9----29.99+0.01 68.4 68.9 67.1---
2024-07-23 12:50 am- 0.0 0.0 0.3-2.6-29.99- 68.5 69.1 66.7---
2024-07-23 12:40 am- 0.0 0.0----29.99- 68.7 69.1 66.4---
2024-07-23 12:30 am- 0.0 1.9----29.99- 68.7 69.1 66.0---
2024-07-23 12:20 am- 0.0 1.9 0.3-2.8-29.99- 68.4 69.1 66.7---
2024-07-23 12:10 am- 0.0 0.0 0.3-2.8-30.00- 68.4 69.1 66.2---
2024-07-23 12:00 am- 0.0 0.0----30.00+0.02 68.4 69.1 66.6---
2024-07-22 11:50 pm- 0.0 1.9 0.3-2.9-29.99- 68.5 69.3 66.7---
2024-07-22 11:40 pm- 0.0 1.9----29.98- 68.7 69.3 66.6---
2024-07-22 11:30 pm- 0.0 0.0----29.98- 68.5 69.1 66.4---
2024-07-22 11:20 pm- 0.0 0.0 0.3-2.9-29.98- 68.9 69.1 66.4---
2024-07-22 11:10 pm- 0.0 1.9 0.3-2.9-29.98- 69.1 69.1 65.8---
2024-07-22 11:00 pm SE 1.9 1.9----29.98+0.01 69.1 69.1 65.8---
2024-07-22 10:50 pmESE 1.9 3.9 0.0-2.8-29.98- 69.3 69.1 66.0---
2024-07-22 10:40 pmESE 3.9 3.9 0.0-2.8-29.98- 69.4 69.1 65.7---
2024-07-22 10:30 pmESE 3.9 3.9----29.98- 69.6 69.1 65.3---
2024-07-22 10:20 pm SE 3.9 5.8 0.0-2.7-29.98- 69.6 69.1 65.3---
2024-07-22 10:10 pm SE 5.8 5.8 0.0-2.7-29.97- 69.6 69.1 65.3---
2024-07-22 10:00 pm SE 5.8 5.8----29.98+0.01 69.6 69.1 65.5---
2024-07-22 09:50 pm SE 3.9 5.8 0.0-2.8-29.97- 69.4 69.1 65.7---
2024-07-22 09:40 pmESE 3.9 5.8 0.0-2.8-29.97- 69.4 69.1 65.8---
2024-07-22 09:30 pm SE 3.9 5.8----29.97- 69.4 69.1 65.7---
2024-07-22 09:20 pm SE 3.9 3.9 0.0-2.8-29.97- 69.4 69.1 65.8---
2024-07-22 09:10 pmSSE 3.9 3.9 0.0-2.8-29.97- 69.6 69.3 66.0---
2024-07-22 09:00 pm SE 3.9 3.9----29.97+0.00 69.6 69.3 65.8---
2024-07-22 08:50 pm SE 3.9 3.9 0.0-2.7-29.98- 69.6 69.3 65.7---
2024-07-22 08:40 pmSSE 3.9 3.9----29.98- 69.8 69.3 65.7---
2024-07-22 08:30 pmSSE 3.9 3.9----29.98- 70.0 69.3 65.7---
2024-07-22 08:20 pm SE 3.9 3.9 0.0-2.8-29.98- 70.2 69.4 65.5---
2024-07-22 08:10 pmSSE 3.9 5.8 0.0-2.8-29.97- 70.5 69.4 65.1---
2024-07-22 08:00 pmSSE 3.9 5.8----29.97-0.01 70.7 69.4 64.6---
2024-07-22 07:50 pm SE 5.8 5.8 0.0-2.7-29.97- 70.7 69.4 64.6---
2024-07-22 07:40 pm SE 3.9 5.8----29.96- 70.7 69.4 64.8---
2024-07-22 07:30 pm SE 3.9 5.8----29.97- 70.9 69.4 64.8---
2024-07-22 07:20 pm SE 3.9 5.8 0.0-2.7-29.97- 70.9 69.4 64.2---
2024-07-22 07:10 pm SE 5.8 5.8 0.0-2.7-29.97- 70.9 69.4 63.9---
2024-07-22 07:00 pm SE 3.9 5.8----29.97-0.04 70.9 69.6 64.0---
2024-07-22 06:50 pm SE 5.8 5.8 0.3-2.9-29.97- 70.9 69.4 63.9---
2024-07-22 06:40 pm SE 5.8 5.8 0.3-2.9-29.97- 71.1 69.6 64.2---
2024-07-22 06:30 pm SE 5.8 5.8----29.97- 71.1 69.6 63.7---
2024-07-22 06:20 pmESE 5.8 5.8 0.0-2.7-29.97- 71.1 69.3 63.3---
2024-07-22 06:10 pmESE 5.8 7.8 0.0-2.7-29.97- 71.1 69.6 62.8---
2024-07-22 06:00 pm SE 5.8 7.8----29.97-0.06 71.1 69.4 62.4---
2024-07-22 05:50 pmESE 5.8 5.8 0.3-2.8-29.97- 71.1 69.3 62.4---
2024-07-22 05:40 pm SE 5.8 7.8----29.97- 71.1 69.1 61.9---
2024-07-22 05:30 pm SE 5.8 7.8----29.97- 70.9 69.6 61.7---
2024-07-22 05:20 pmESE 5.8 7.8 0.3-2.8-29.98- 70.7 69.6 61.9---
2024-07-22 05:10 pmESE 5.8 7.8 0.3-2.8-29.98- 70.7 69.3 62.1---
2024-07-22 05:00 pmESE 5.8 5.8----29.98-0.05 70.7 69.4 61.9---
2024-07-22 04:50 pmESE 5.8 5.8 0.3-2.8-29.99- 70.5 69.4 60.6---
2024-07-22 04:40 pmESE 5.8 5.8 0.3-2.8-29.99- 70.2 68.9 61.9---
2024-07-22 04:30 pm SE 5.8 7.8----29.99- 70.0 69.4 63.0---
2024-07-22 04:20 pm SE 5.8 7.8 0.3-2.8-29.99- 69.8 69.3 63.3---
2024-07-22 04:10 pm SE 5.8 7.8 0.3-2.8-30.00- 69.6 68.9 64.0---
2024-07-22 04:00 pm SE 5.8 7.8----30.00-0.04 69.6 68.9 63.9---
2024-07-22 03:50 pm SE 5.8 7.8 0.3-2.8-30.01- 69.4 69.3 63.7---
2024-07-22 03:40 pmSSE 5.8 5.8----30.01- 69.4 68.9 63.9---
2024-07-22 03:30 pmSSE 5.8 5.8----30.02- 69.3 68.5 63.5---
2024-07-22 03:20 pm SE 5.8 5.8 0.3-2.6-30.02- 69.3 68.9 63.5---
2024-07-22 03:10 pm SE 5.8 5.8 0.3-2.6-30.03- 69.3 68.5 63.3---
2024-07-22 03:00 pm SE 5.8 5.8----30.03-0.03 69.1 68.7 63.1---
2024-07-22 02:50 pmSSE 5.8 5.8 0.3-2.6-30.03- 68.9 68.7 63.7---
2024-07-22 02:40 pm SE 5.8 7.8----30.03- 68.9 68.4 63.5---
2024-07-22 02:30 pm SE 5.8 7.8----30.03- 68.9 68.4 63.3---
2024-07-22 02:20 pm SE 5.8 5.8 0.3-2.7-30.03- 68.9 68.0 63.0---
2024-07-22 02:10 pmESE 5.8 5.8 0.3-2.7-30.03- 68.9 67.8 62.4---
2024-07-22 02:00 pmESE 3.9 5.8----30.03-0.03 68.7 67.6 62.2---
2024-07-22 01:50 pm E 3.9 5.8 0.3-2.8-30.03- 68.7 67.6 62.2---
2024-07-22 01:40 pm E 3.9 3.9----30.04- 68.5 67.5 62.2---
2024-07-22 01:30 pm E 3.9 5.8----30.04- 68.5 67.5 61.9---
2024-07-22 01:20 pm E 3.9 3.9 0.3-2.6-30.04- 68.4 67.5 62.1---
2024-07-22 01:10 pm E 3.9 5.8 0.3-2.6-30.04- 68.4 67.5 61.9---
2024-07-22 01:00 pm E 3.9 3.9----30.04-0.02 68.4 67.3 62.1---
2024-07-22 12:50 pm E 1.9 3.9 0.3-2.6-30.04- 68.4 67.3 62.1---
2024-07-22 12:40 pm E 1.9 3.9 0.3-2.6-30.05- 68.2 67.3 62.1---
2024-07-22 12:30 pm E 3.9 3.9----30.05- 68.0 67.3 62.4---
2024-07-22 12:20 pm E 3.9 3.9 0.3-2.5-30.05- 67.8 67.3 62.4---
2024-07-22 12:10 pm E 3.9 3.9 0.3-2.5-30.05- 67.8 67.3 62.4---
2024-07-22 12:00 pm E 3.9 3.9----30.05-0.01 68.0 67.3 62.6---
2024-07-22 11:50 am E 1.9 3.9 0.3-2.6-30.06- 68.2 67.3 62.4---
2024-07-22 11:40 am E 1.9 1.9----30.06- 68.2 67.3 62.2---
2024-07-22 11:30 amENE 1.9 1.9----30.06- 67.8 67.3 62.2---
2024-07-22 11:20 amENE 1.9 1.9 0.7-2.7-30.06- 67.6 67.1 62.4---
2024-07-22 11:10 amENE 1.9 1.9 0.7-2.7-30.06- 67.6 67.1 62.2---
2024-07-22 11:00 am E 1.9 1.9----30.06-0.01 67.5 67.1 62.2---
2024-07-22 10:50 am E 1.9 1.9 0.7-2.7-30.06- 67.5 67.1 62.2---
2024-07-22 10:40 am E 1.9 1.9 0.7-2.7-30.06- 67.3 67.1 62.2---
2024-07-22 10:30 am E 1.9 1.9----30.06- 67.3 67.1 62.4---
2024-07-22 10:20 amENE 1.9 1.9 0.7-2.7-30.06- 67.1 67.1 62.1---
2024-07-22 10:10 am NE 1.9 1.9 0.7-2.7-30.06- 67.1 67.1 62.1---
2024-07-22 10:00 am NE 1.9 1.9----30.06+0.00 67.1 66.9 61.9---
2024-07-22 09:50 am NE 1.9 1.9 0.7-2.8-30.06- 67.1 66.9 61.9---

Detailed Wave Summary
for 45002 as of (10:10 am EDT)
1410 GMT on 07/23/2024:

These wave data are displayed in rounded times.

     

Click on the graph icon in the table below to see a time series plot of the last five days of that observation.

5-day plot - Significant Wave Height Significant Wave Height (WVHT): 1.0 ft
5-day plot - Swell Height Swell Height (SwH): 0.0 ft
5-day plot - Swell Period Swell Period (SwP): 5.6 sec
5-day plot - Swell Direction Swell Direction (SwD):SSW
5-day plot - Wind Wave Height Wind Wave Height (WWH): 1.0 ft
5-day plot - Wind Wave Period Wind Wave Period (WWP): 2.6 sec
5-day plot - Wind Wave Direction Wind Wave Direction (WWD): NE
5-day plot - Average Wave Period Average Wave Period (APD): 2.5 sec
Previous observations
TIME
(EDT)
5-day plot - Wave Height
WVHT
ft
5-day plot - Swell Height
SwH
ft
5-day plot - Swell Period
SwP
sec
5-day plot - Swell Direction
SwD
 
5-day plot - Wind Wave Height
WWH
ft
5-day plot - Wind Wave Period
WWP
sec
5-day plot - Wind Wave Direction
WWD
 
5-day plot - Wave Steepness
STEEPNESS
 
5-day plot - Average Wave Period
APD
sec
2024-07-23 09:40 am 0.7------ N/A 2.6
2024-07-23 09:10 am 1.0 0.0 5.3ESE 1.0 2.7 NNE N/A 2.6
2024-07-23 08:40 am 0.7------ N/A 2.6
2024-07-23 08:10 am 0.7------ N/A 2.5
2024-07-23 07:10 am 0.7------ N/A 3.2
2024-07-23 06:40 am 0.3------ N/A 2.9
2024-07-23 06:10 am 0.3------ N/A 2.7
2024-07-23 05:40 am 0.3------ N/A 2.8
2024-07-23 05:10 am 0.3------ N/A 2.7
2024-07-23 04:40 am 0.3------ N/A 2.7
2024-07-23 04:10 am 0.0------ N/A 2.6
2024-07-23 03:40 am 0.3------ N/A 2.6
2024-07-23 03:10 am 0.0------ N/A 2.6
2024-07-23 02:40 am 0.0------ N/A 2.6
2024-07-23 02:10 am 0.0------ N/A 2.7
2024-07-23 01:40 am 0.3------ N/A 2.6
2024-07-23 01:10 am 0.3------ N/A 2.6
2024-07-23 12:40 am 0.3------ N/A 2.6
2024-07-23 12:10 am 0.3------ N/A 2.8
2024-07-22 11:40 pm 0.3------ N/A 2.9
2024-07-22 11:10 pm 0.3------ N/A 2.9
2024-07-22 10:40 pm 0.0------ N/A 2.8
2024-07-22 10:10 pm 0.0------ N/A 2.7
2024-07-22 09:40 pm 0.0------ N/A 2.8
2024-07-22 09:10 pm 0.0------ N/A 2.8
2024-07-22 08:40 pm 0.0------ N/A 2.7
2024-07-22 08:10 pm 0.0------ N/A 2.8
2024-07-22 07:40 pm 0.0------ N/A 2.7
2024-07-22 07:10 pm 0.0------ N/A 2.7
2024-07-22 06:40 pm 0.3------ N/A 2.9
2024-07-22 06:10 pm 0.0------ N/A 2.7
2024-07-22 05:40 pm 0.3------ N/A 2.8
2024-07-22 05:10 pm 0.3------ N/A 2.8
2024-07-22 04:40 pm 0.3------ N/A 2.8
2024-07-22 04:10 pm 0.3------ N/A 2.8
2024-07-22 03:40 pm 0.3------ N/A 2.8
2024-07-22 03:10 pm 0.3------ N/A 2.6
2024-07-22 02:40 pm 0.3------ N/A 2.6
2024-07-22 02:10 pm 0.3------ N/A 2.7
2024-07-22 01:40 pm 0.3------ N/A 2.8
2024-07-22 01:10 pm 0.3------ N/A 2.6
2024-07-22 12:40 pm 0.3------ N/A 2.6
2024-07-22 12:10 pm 0.3------ N/A 2.5
2024-07-22 11:40 am 0.3------ N/A 2.6
2024-07-22 11:10 am 0.7------ N/A 2.7
2024-07-22 10:40 am 0.7------ N/A 2.7
2024-07-22 10:10 am 0.7------ N/A 2.7

Plot of wave energy versus frequency (and period)